Date String (YYYY-MM-DD hh:mm:ss) UTC,Instrument flags,Ambient pressure (hPa),Sample flow (lpm),Bypass flow (lpm),Sample temperature (°C),Ambient temperature (°C),ASC tube jacket temperature (°C),LED temperature (°C),Box temperature (°C),Sample RH (%),Span deviation,Mass concentration (μg/m³),Mass concentration (μg/m³),Mass concentration (μg/m³)
DateTimeUTC,F1_M11,P_M11,Q1_M11,Q2_M11,T1_M11,T2_M11,T3_M11,T4_M11,T5_M11,U1_M11,ZSPAN_M11,X0_M11,X2_M11,X1_M11
2022-10-20 12:00:00,,0828.4,4.98,0.00,27.1,25.4,00.0,35.9,28.9,07.9,0000.0,0008.44,0003.51,0002.84
2022-10-20 12:01:00,,0828.4,4.99,0.00,27.0,25.4,00.0,35.9,28.8,07.9,0000.0,0008.41,0003.50,0002.83
2022-10-20 12:02:00,,0828.4,5.00,0.00,27.0,25.4,00.0,35.9,28.8,07.9,0000.0,0007.95,0003.49,0002.82
2022-10-20 12:03:00,,0828.3,5.01,0.00,27.0,25.4,00.0,35.9,28.9,07.9,0000.0,0008.06,0003.50,0002.82
2022-10-20 12:04:00,,0828.3,5.00,0.00,27.1,25.4,00.0,35.9,28.9,07.9,0000.0,0008.15,0003.48,0002.81
2022-10-20 12:05:00,,0828.3,5.00,0.00,27.1,25.4,00.0,35.9,28.9,07.9,0000.0,0008.50,0003.46,0002.79
2022-10-20 12:06:00,,0828.4,4.99,0.00,27.0,25.4,00.0,35.9,28.8,07.9,0000.0,0008.48,0003.45,0002.78
2022-10-20 12:07:00,,0828.3,5.00,0.00,27.0,25.4,00.0,35.9,28.9,07.9,0000.0,0008.88,0003.44,0002.77
2022-10-20 12:08:00,,0828.5,5.01,0.00,27.0,25.4,00.0,35.9,28.9,07.9,0000.0,0008.89,0003.40,0002.75
2022-10-20 12:09:00,,0828.4,5.01,0.00,27.1,25.4,00.0,35.9,28.9,07.9,0000.0,0008.78,0003.39,0002.75
2022-10-20 12:10:00,,0828.4,5.00,0.00,27.1,25.4,00.0,35.9,28.9,07.9,0000.0,0008.80,0003.40,0002.76
2022-10-20 12:11:00,,0828.4,4.98,0.00,27.1,25.5,00.0,35.9,29.0,07.9,0000.0,0008.89,0003.43,0002.74
2022-10-20 12:12:00,,0828.4,5.00,0.00,27.1,25.5,00.0,35.9,28.9,07.9,0000.0,0008.82,0003.41,0002.71
2022-10-20 12:13:00,,0828.4,5.02,0.00,27.1,25.4,00.0,35.9,28.9,07.9,0000.0,0008.70,0003.38,0002.71
2022-10-20 12:14:00,,0828.3,4.99,0.00,27.1,25.4,00.0,35.9,28.9,07.9,0000.0,0008.88,0003.35,0002.69
2022-10-20 12:15:00,,0828.4,4.99,0.00,27.1,25.5,00.0,35.9,28.9,07.9,0000.0,0009.10,0003.36,0002.67
2022-10-20 12:16:00,,0828.4,5.01,0.00,27.1,25.5,00.0,35.9,29.0,07.9,0000.0,0008.83,0003.35,0002.66
2022-10-20 12:17:00,,0828.4,5.02,0.00,27.1,25.5,00.0,35.9,29.0,07.9,0000.0,0008.12,0003.31,0002.63
2022-10-20 12:18:00,,0828.4,5.00,0.00,27.1,25.5,00.0,35.9,28.9,07.9,0000.0,0007.72,0003.29,0002.61
2022-10-20 12:19:00,,0828.4,4.99,0.00,27.1,25.5,00.0,35.9,29.0,07.9,0000.0,0007.48,0003.30,0002.59
2022-10-20 12:20:00,,0828.4,5.01,0.00,27.1,25.5,00.0,35.9,29.0,07.9,0000.0,0007.46,0003.31,0002.56
2022-10-20 12:21:00,,0828.4,5.01,0.00,27.1,25.5,00.0,35.9,29.0,07.9,0000.0,0007.52,0003.31,0002.56
2022-10-20 12:22:00,,0828.4,4.99,0.00,27.1,25.5,00.0,35.9,29.0,07.9,0000.0,0007.95,0003.30,0002.54
2022-10-20 12:23:00,,0828.5,4.99,0.00,27.1,25.5,00.0,35.9,29.0,07.9,0000.0,0008.61,0003.32,0002.53
2022-10-20 12:24:00,,0828.4,5.01,0.00,27.1,25.5,00.0,35.9,29.0,07.9,0000.0,0008.78,0003.33,0002.52
2022-10-20 12:25:00,,0828.4,5.00,0.00,27.1,25.6,00.0,35.9,29.0,07.9,0000.0,0008.73,0003.34,0002.52
2022-10-20 12:26:00,,0828.4,4.99,0.00,27.1,25.6,00.0,35.9,29.1,08.0,0000.0,0008.49,0003.39,0002.54
2022-10-20 12:27:00,,0828.4,5.00,0.00,27.1,25.6,00.0,36.0,29.1,08.0,0000.0,0008.46,0003.41,0002.58
2022-10-20 12:28:00,,0828.3,5.01,0.00,27.1,25.6,00.0,36.0,29.0,08.0,0000.0,0008.51,0003.45,0002.63
2022-10-20 12:29:00,,0828.4,4.99,0.00,27.1,25.6,00.0,36.0,29.1,08.0,0000.0,0008.59,0003.49,0002.68
2022-10-20 12:30:00,,0828.3,4.99,0.00,27.1,25.6,00.0,36.0,29.1,07.9,0000.0,0008.66,0003.50,0002.72
2022-10-20 12:31:00,,0828.3,5.01,0.00,27.1,25.6,00.0,36.0,29.1,08.0,0000.0,0008.75,0003.52,0002.77
2022-10-20 12:32:00,,0828.3,5.00,0.00,27.1,25.6,00.0,36.0,29.0,08.0,0000.0,0008.94,0003.53,0002.81
2022-10-20 12:33:00,,0828.3,4.99,0.00,27.1,25.6,00.0,36.0,29.0,08.0,0000.0,0008.60,0003.55,0002.87
2022-10-20 12:34:00,,0828.3,5.00,0.00,27.1,25.6,00.0,36.0,29.0,07.9,0000.0,0008.12,0003.59,0002.93
2022-10-20 12:35:00,,0828.3,5.01,0.00,27.1,25.6,00.0,36.0,29.1,07.9,0000.0,0008.46,0003.59,0002.95
2022-10-20 12:36:00,,0828.3,5.00,0.00,27.1,25.6,00.0,36.0,29.1,07.9,0000.0,0008.76,0003.59,0002.96
2022-10-20 12:37:00,,0828.3,4.99,0.00,27.1,25.6,00.0,36.0,29.1,07.9,0000.0,0008.66,0003.56,0002.98
2022-10-20 12:38:00,,0828.3,5.00,0.00,27.1,25.6,00.0,36.0,29.1,07.9,0000.0,0008.67,0003.58,0002.98
2022-10-20 12:39:00,,0828.2,5.01,0.00,27.1,25.6,00.0,36.0,29.1,08.0,0000.0,0008.72,0003.60,0003.00
2022-10-20 12:40:00,,0828.2,5.00,0.00,27.1,25.6,00.0,36.0,29.1,08.0,0000.0,0008.82,0003.61,0002.99
2022-10-20 12:41:00,,0828.2,4.99,0.00,27.1,25.6,00.0,36.0,29.1,08.0,0000.0,0008.71,0003.60,0003.00
2022-10-20 12:42:00,,0828.3,5.00,0.00,27.1,25.6,00.0,36.0,29.0,07.9,0000.0,0008.60,0003.60,0002.99
2022-10-20 12:43:00,,0828.2,5.01,0.00,27.1,25.5,00.0,36.0,29.0,08.0,0000.0,0008.35,0003.57,0002.96
2022-10-20 12:44:00,,0828.2,5.01,0.00,27.1,25.5,00.0,36.0,29.0,08.0,0000.0,0008.19,0003.54,0002.96
2022-10-20 12:45:00,,0828.2,4.99,0.00,27.1,25.5,00.0,36.0,29.0,07.9,0000.0,0009.53,0003.51,0002.95
2022-10-20 12:46:00,,0828.2,5.00,0.00,27.1,25.5,00.0,36.0,29.0,07.9,0000.0,0009.14,0003.53,0002.96
2022-10-20 12:47:00,,0828.2,5.00,0.00,27.1,25.5,00.0,36.0,29.0,07.9,0000.0,0008.61,0003.53,0002.97
2022-10-20 12:48:00,,0828.2,4.99,0.00,27.1,25.5,00.0,36.0,29.0,07.9,0000.0,0008.55,0003.51,0002.97
2022-10-20 12:49:00,,0828.2,5.00,0.00,27.1,25.5,00.0,36.0,29.0,07.9,0000.0,0008.53,0003.49,0002.96
2022-10-20 12:50:00,,0828.2,5.01,0.00,27.1,25.5,00.0,36.0,28.9,07.9,0000.0,0008.56,0003.49,0002.94
2022-10-20 12:51:00,,0828.2,5.00,0.00,27.1,25.5,00.0,36.0,29.0,07.9,0000.0,0008.58,0003.47,0002.93
2022-10-20 12:52:00,,0828.2,5.01,0.00,27.1,25.5,00.0,36.0,29.0,07.9,0000.0,0008.65,0003.50,0002.95
2022-10-20 12:53:00,,0828.2,5.00,0.00,27.1,25.5,00.0,36.0,29.0,07.9,0000.0,0009.28,0003.52,0002.98
2022-10-20 12:54:00,,0828.2,5.01,0.00,27.1,25.5,00.0,36.0,29.0,07.9,0000.0,0010.09,0003.54,0002.99
2022-10-20 12:55:00,,0828.2,5.00,0.00,27.1,25.5,00.0,36.0,29.0,07.9,0000.0,0011.19,0003.60,0002.98
2022-10-20 12:56:00,,0828.2,5.00,0.00,27.1,25.5,00.0,36.0,29.0,07.9,0000.0,0009.97,0003.63,0003.00
2022-10-20 12:57:00,,0828.3,5.00,0.00,27.1,25.5,00.0,36.0,29.0,07.9,0000.0,0009.78,0003.65,0003.00
2022-10-20 12:58:00,,0828.2,5.00,0.00,27.1,25.5,00.0,36.0,29.0,07.9,0000.0,0009.89,0003.69,0003.02
2022-10-20 12:59:00,,0828.2,5.00,0.00,27.1,25.5,00.0,36.0,29.0,07.9,0000.0,0010.12,0003.71,0003.02
